ENVAENKB

Guest
Details From ENVA - Trondheim Vaernes
To ENKB - KVERNBERGET
Flight Number -
Tags generated
Created
Modified
Stats Distance 86 nm / 160 km
Max Altitude 0 ft / 0 m
Waypoints 2
Social Downloads 0
Likes 0
Share VATSIM

Download

Looking for another format? Having issues loading an existing format? Contact us
Advertisement - Login to hide

Notes

Basic altitude profile: - Ascent Rate: 2500ft/min - Ascent Speed: 250kts - Cruise Altitude: 35000ft - Cruise Speed: 420kts - Descent Rate: 1500ft/min - Descent Speed: 250kts Options: - Use NATs: no - Use PACOTS: no - Use low airways: no - Use high airways: no

Route

ENVA ENKB

ID Type Via Altitude (ft/m) Position (lat/lon) Dist (leg/tot) Name
O ENVA APT - 0 / 0 63.45750 / 10.92420 - / 0 nm Trondheim Vaernes
O ENKB APT - 0 / 0 63.11190 / 7.82453 86 / 86 nm KVERNBERGET

Altitude Profile

Advertisement - Login to hide

ENVA

Details ICAO ENVA (TRD)
Name Trondheim Vaernes
Region Norway
Timezone Europe/Oslo (UTC+2.0)
Stats Elevation 56 ft / 17 m (AMSL)
Location 63.457500° 10.924200°
Runways 1
Magnetic Variation 3.940° E

METAR

ENVA 060620Z 09004KT 050V120 CAVOK 08/M01 Q1014 NOSIG RMK WIND 670FT 16013KT

Decode

TAF

TAF ENVA 060500Z 0606/0706 13008KT CAVOK TEMPO 0612/0618 16015G25KT TEMPO 0622/0703 4000 RA BKN014 BECMG 0701/0703 26010KT

Decode

Departure Runways

ID Width Length Bearing (true/mag) Surface Threshold Overrun Markings Lighting
09 148 ft / 45 m 9,744 ft / 2,970 m 90.18° / 86.24° ASPHALT 830 ft / 253 m 0 ft / 0 m PREC-APP CENTERLINE EDGE THRESHOLD CALVERT REIL-OMNI
27 148 ft / 45 m 9,744 ft / 2,970 m 270.24° / 266.30° ASPHALT 745 ft / 227 m 0 ft / 0 m PREC-APP CENTERLINE EDGE THRESHOLD CALVERT REIL-OMNI

ENKB

Details ICAO ENKB (KSU)
Name KVERNBERGET
Region Norway
Timezone Europe/Oslo (UTC+2.0)
Stats Elevation 204 ft / 62 m (AMSL)
Location 63.111900° 7.824530°
Runways 1
Magnetic Variation 2.431° E

METAR

ENKB 060550Z 12006KT 070V150 CAVOK 09/M03 Q1011 RMK WIND 745FT 14017KT

Decode

TAF

Not found

Destination Runways

ID Width Length Bearing (true/mag) Surface Threshold Overrun Markings Lighting
07 148 ft / 45 m 6,192 ft / 1,887 m 71.39° / 68.96° ASPHALT 197 ft / 60 m 0 ft / 0 m PREC-APP CENTERLINE EDGE THRESHOLD MALS
25 148 ft / 45 m 6,192 ft / 1,887 m 251.42° / 248.99° ASPHALT 263 ft / 80 m 0 ft / 0 m APP CENTERLINE EDGE THRESHOLD

Approach Navaids

Runway Type Ident Frequency Range Bearing (true/mag) Slope Elevation
07 OM OM - - 71.41° / 68.98 ° - 204 ft / 62 m (AMSL)
07 MM MM - - 71.41° / 68.98 ° - 204 ft / 62 m (AMSL)
07 LOC-ILS KB 110.10 MHz 18 nm / 33 km 71.60° / 69.17 ° - 204 ft / 62 m (AMSL)
07 GS KB 110.10 MHz 10 nm / 19 km 71.81° / 69.38 ° 3.00° 204 ft / 62 m (AMSL)

Popular Alternatives